Change the Weather History Date:

Friday, November 23, 2012

  Actual Average Record
Temperature  
Mean Temperature 52 °F -  
Max Temperature 72 °F 69 °F 82 °F (1982)
Min Temperature 32 °F 47 °F 26 °F (1976)
Degree Days  
Heating Degree Days 13    
Growing Degree Days 2 (Base 50)    
Moisture  
Dew Point 39 °F    
Average Humidity 68    
Maximum Humidity 96    
Minimum Humidity 35    
Precipitation  
Precipitation 0.00 in - - ()
Sea Level Pressure  
Sea Level Pressure 30.12 in    
Wind  
Wind Speed 2 mph (West)    
Max Wind Speed 10 mph    
Max Gust Speed -    
Visibility 9 miles    
Events      
Averages and records for this station are not official NWS values.
T = Trace of Precipitation, MM = Missing Value Source: NWS Daily Summary

Daily Weather History Graph

Daily Weather History Graph

Search for Another Location

Airport or City:

Trip Planner

Search our weather history database for the weather conditions in past years. The results will help you decide how hot, cold, wet, or windy it might be!

Date:

Astronomy

Nov. 23, 2012 Rise Set
Actual Time 7:02 AM EST 5:23 PM EST
Civil Twilight 6:35 AM EST 5:49 PM EST
Nautical Twilight 6:06 AM EST 6:19 PM EST
Astronomical Twilight 5:36 AM EST 6:48 PM EST
Moon 2:24 PM EST (11/23) 2:34 AM EST (11/23)
Length of Visible Light 11h 13m
Length of Day
10h 20m
Waxing Gibbous, 79% of the Moon is Illuminated
Nov 23
Waxing Gibbous
Nov 28
Full
Dec 6
Last Quarter
Dec 13
New
Dec 20
First Quarter

Hourly Weather History & Observations

Time (EST) Temp. Windchill Dew Point Humidity Pressure Visibility Wind Dir Wind Speed Gust Speed Precip Events Conditions
12:55 AM 37.6 °F - 35.1 °F 91% 30.19 in 10.0 mi Calm Calm - N/A   Clear
1:55 AM 35.8 °F - 33.4 °F 91% 30.18 in 10.0 mi Calm Calm - N/A   Clear
2:55 AM 34.3 °F - 32.9 °F 94% 30.17 in 10.0 mi Calm Calm - N/A   Clear
3:55 AM 33.6 °F - 32.2 °F 94% 30.18 in 10.0 mi Calm Calm - N/A   Clear
4:55 AM 33.8 °F - 32.4 °F 94% 30.19 in 10.0 mi Calm Calm - N/A   Clear
5:55 AM 32.7 °F - 31.8 °F 96% 30.19 in 10.0 mi Calm Calm - N/A   Clear
6:55 AM 32.7 °F - 31.3 °F 94% 30.19 in 10.0 mi Calm Calm - N/A   Clear
7:15 AM 33.8 °F - 32.0 °F 93% 30.16 in 7.0 mi Calm Calm - N/A   Partly Cloudy
7:55 AM 35.6 °F 29.9 °F 32.0 °F 87% 30.20 in 7.0 mi Variable 6.9 mph - N/A   Partly Cloudy
8:55 AM 42.8 °F - 37.4 °F 81% 30.20 in 7.0 mi Calm Calm - N/A   Partly Cloudy
9:55 AM 55.4 °F - 39.2 °F 54% 30.20 in 7.0 mi Variable 6.9 mph - N/A   Partly Cloudy
10:55 AM 60.8 °F - 37.4 °F 42% 30.19 in 7.0 mi West 3.5 mph - N/A   Partly Cloudy
11:55 AM 68.0 °F - 40.5 °F 37% 30.16 in 10.0 mi West 9.2 mph - N/A   Clear
11:59 AM 68.0 °F - 41.0 °F 37% 30.16 in 10.0 mi WNW 10.4 mph - N/A   Clear
12:55 PM 70.7 °F - 41.4 °F 35% 30.12 in 10.0 mi WSW 9.2 mph - N/A   Clear
1:55 PM 72.0 °F - 42.8 °F 35% 30.08 in 10.0 mi West 10.4 mph - N/A   Clear
2:55 PM 72.1 °F - 43.0 °F 35% 30.06 in 10.0 mi West 9.2 mph - N/A   Clear
3:55 PM 72.0 °F - 43.3 °F 36% 30.04 in 10.0 mi Calm Calm - N/A   Clear
4:55 PM 67.1 °F - 44.6 °F 44% 30.04 in 10.0 mi Calm Calm - N/A   Clear
5:55 PM 58.1 °F - 47.3 °F 67% 30.03 in 10.0 mi Calm Calm - N/A   Clear
6:55 PM 53.6 °F - 46.6 °F 77% 30.04 in 10.0 mi Calm Calm - N/A   Clear
7:55 PM 50.5 °F - 45.7 °F 83% 30.04 in 10.0 mi Calm Calm - N/A   Clear
8:55 PM 54.1 °F - 44.6 °F 70% 30.03 in 10.0 mi Calm Calm - N/A   Clear
9:55 PM 55.9 °F - 45.7 °F 68% 30.02 in 10.0 mi WSW 8.1 mph - N/A   Clear
10:55 PM 55.2 °F - 45.0 °F 68% 30.01 in 10.0 mi WSW 8.1 mph - N/A   Clear
11:55 PM 55.0 °F - 44.8 °F 68% 30.00 in 10.0 mi WSW 6.9 mph - N/A   Clear